Back to catalog

SL-16 DEB

AliveLEO
NORAD 23418·DEBRIS·🇷🇺 Russia

Launched Nov 24, 1994 from Baikonur Cosmodrome

Loading…

Next Passes (next 24 hours)

TLE

StaleSource: Space-Track

Epoch: Sep 7, 2026, 16:22 UTC

1 23418U 94077J   26250.68244545  .00000231  00000-0  15150-3 0  9999
2 23418  71.0064 358.8392 0074076  52.9628 307.8238 14.10684656675080

Track SL-16 DEB in real time with AllMySat

Download on the App Store